Latest Weather Observations for Gove Airport

IDD60801

Issued at 9:05 pm CST Friday 31 October 2014 (issued every 30 minutes, with the page automatically refreshed every 10 minutes)

About weather observations | Map of weather stations | Latest weather observations for NT | Other Formats
Station Details ID: 014508 Name: GOVE AIRPORT Lat: -12.27 Lon: 136.82 Height: 51.6 m
Data from the previous 72 hours. | See also: Recent months at Gove Airport
Date/Time
CST
Temp
°C
App
Temp
°C
Dew
Point
Rel
Hum
%
Delta-T
°C
Wind Press
QNH
hPa
Press
MSL
hPa
Rain
since 9 am
mm
Dir
 
Spd
km/h
Gust
km/h
Spd
kts
Gust
kts
31/09:00pm 24.7 27.4 20.6 78 2.7 ENE 7 9 4 5 1010.9 1010.5 0.0
31/08:30pm 25.0 27.7 20.6 76 2.9 ENE 7 9 4 5 1010.4 - 0.0
31/08:00pm 25.4 27.6 20.5 74 3.2 ENE 9 13 5 7 1010.1 - 0.0
31/07:30pm 25.6 27.9 20.7 74 3.2 NE 9 11 5 6 1009.6 - 0.0
31/07:00pm 26.0 28.4 20.8 73 3.4 NE 9 11 5 6 1009.4 - 0.0
31/06:30pm 26.3 28.0 21.0 72 3.5 NNE 13 15 7 8 1009.1 - 0.0
31/06:00pm 27.0 28.7 21.0 69 4.0 NNE 13 17 7 9 1008.8 1008.4 0.0
31/05:30pm 27.7 29.0 20.9 66 4.5 NNE 15 20 8 11 1008.6 - 0.0
31/05:00pm 28.4 29.2 20.7 63 5.1 NNE 17 20 9 11 1008.5 - 0.0
31/04:30pm 29.0 29.5 20.0 58 5.9 NE 17 22 9 12 1008.3 - 0.0
31/04:00pm 28.9 30.2 20.1 59 5.8 NE 13 22 7 12 1008.5 - 0.0
31/03:30pm 29.2 30.4 19.9 57 6.1 ENE 13 20 7 11 1008.7 - 0.0
31/03:00pm 29.8 30.6 20.6 57 6.1 ENE 17 26 9 14 1008.8 1008.4 0.0
31/02:30pm 30.7 31.8 20.5 54 6.8 NE 15 22 8 12 1009.1 - 0.0
31/02:00pm 30.2 30.6 19.9 54 6.8 NE 17 28 9 15 1009.4 - 0.0
31/01:30pm 29.8 31.2 20.3 56 6.3 ENE 13 24 7 13 1009.7 - 0.0
31/01:00pm 30.3 30.4 20.3 55 6.6 NNE 20 26 11 14 1010.3 - 0.0
31/12:30pm 30.6 30.7 20.0 53 7.0 NE 19 30 10 16 1010.7 - 0.0
31/12:00pm 29.8 29.4 19.4 53 6.8 ENE 20 33 11 18 1011.3 1010.9 0.0
31/11:30am 30.7 30.4 19.2 50 7.5 NE 19 30 10 16 1011.6 - 0.0
31/11:00am 29.6 29.5 19.9 56 6.4 ENE 20 28 11 15 1011.9 - 0.0
31/10:30am 29.5 30.2 20.4 58 6.0 NE 17 26 9 14 1012.1 - 0.0
31/10:00am 29.5 29.7 20.6 58 5.9 ENE 20 24 11 13 1012.1 - 0.0
31/09:00am 28.5 29.0 20.8 63 5.1 NNE 19 30 10 16 1012.3 1011.9 0.0
31/08:30am 27.9 28.0 20.3 63 5.0 NNE 20 28 11 15 1012.1 - 0.0
31/08:00am 27.9 28.2 20.8 65 4.7 NNE 20 28 11 15 1011.8 - 0.0
31/07:30am 27.3 28.2 20.8 67 4.3 NE 17 26 9 14 1011.5 - 0.0
31/07:00am 26.1 27.3 20.6 71 3.6 NNE 15 20 8 11 1011.2 - 0.0
31/06:30am 24.8 26.8 20.8 78 2.6 NNE 11 17 6 9 1010.8 - 0.0
31/06:00am 23.9 26.3 20.9 83 2.0 NE 9 11 5 6 1010.5 1010.1 0.0
31/05:30am 23.6 26.0 20.9 85 1.8 NNE 9 11 5 6 1010.2 - 0.0
31/05:00am 23.7 26.5 20.8 84 1.9 NNE 7 9 4 5 1010.0 - 0.0
31/04:30am 20.6 23.2 18.5 88 1.3 NNE 2 9 1 5 1009.7 - 0.0
31/04:00am 20.4 23.7 19.0 92 0.9 CALM 0 0 0 0 1009.5 - 0.0
31/03:30am 20.1 23.1 18.5 90 1.0 CALM 0 0 0 0 1009.2 - 0.0
31/03:00am 19.9 22.9 18.5 92 0.9 CALM 0 0 0 0 1009.1 1008.7 0.0
31/02:30am 20.1 23.2 18.7 92 0.9 CALM 0 0 0 0 1009.1 - 0.0
31/02:00am 20.2 23.0 17.9 87 1.4 CALM 0 0 0 0 1009.2 - 0.0
31/01:30am 20.7 24.0 19.1 90 1.0 CALM 0 0 0 0 1009.5 - 0.0
31/01:00am 21.2 24.7 19.5 90 1.1 CALM 0 0 0 0 1009.8 - 0.0
31/12:30am 21.0 24.5 19.6 92 0.9 CALM 0 0 0 0 1009.9 - 0.0
31/12:00am 21.1 24.6 19.5 90 1.0 ENE 0 0 0 0 1010.3 1009.9 0.0
 
Date/Time
CST
Temp
°C
App
Temp
°C
Dew
Point
Rel
Hum
%
Delta-T
°C
Wind Press
QNH
hPa
Press
MSL
hPa
Rain
since 9 am
mm
Dir
 
Spd
km/h
Gust
km/h
Spd
kts
Gust
kts
30/11:30pm 21.6 25.2 19.7 89 1.2 CALM 0 0 0 0 1010.6 - 0.0
30/11:00pm 21.6 25.3 19.9 90 1.1 CALM 0 0 0 0 1010.9 - 0.0
30/10:30pm 21.7 25.4 20.0 90 1.1 CALM 0 0 0 0 1011.1 - 0.0
30/10:00pm 21.9 25.6 20.0 89 1.2 CALM 0 0 0 0 1011.0 - 0.0
30/09:30pm 22.4 26.3 20.4 88 1.3 CALM 0 0 0 0 1010.7 - 0.0
30/09:00pm 22.9 26.4 20.4 86 1.6 NE 2 7 1 4 1010.4 1010.0 0.0
30/08:30pm 23.4 27.4 20.6 84 1.8 CALM 0 0 0 0 1010.2 - 0.0
30/08:00pm 25.4 28.4 21.2 77 2.8 ENE 7 9 4 5 1010.0 - 0.0
30/07:30pm 25.7 28.3 21.2 76 3.0 E 9 11 5 6 1009.7 - 0.0
30/07:00pm 26.1 28.8 21.3 75 3.2 E 9 13 5 7 1009.7 - 0.0
30/06:30pm 26.4 28.7 21.4 74 3.3 ENE 11 15 6 8 1009.4 - 0.0
30/06:00pm 27.0 28.8 21.1 70 3.9 E 13 17 7 9 1009.2 1008.8 0.0
30/05:30pm 28.0 30.0 20.8 65 4.8 ENE 11 15 6 8 1009.1 - 0.0
30/05:00pm 27.9 29.6 21.0 66 4.6 NE 13 19 7 10 1009.0 - 0.0
30/04:30pm 29.0 29.8 20.6 60 5.6 E 17 20 9 11 1008.9 - 0.0
30/04:00pm 28.9 30.6 20.9 62 5.3 NE 13 24 7 13 1008.9 - 0.0
30/03:30pm 29.8 31.0 20.6 57 6.1 ENE 15 22 8 12 1009.2 - 0.0
30/03:00pm 31.2 32.7 20.6 53 7.1 NE 13 20 7 11 1009.5 1009.1 0.0
30/02:30pm 29.5 30.2 20.4 58 6.0 NNE 17 24 9 13 1009.5 - 0.0
30/02:00pm 30.3 30.7 19.8 53 6.9 NNE 17 26 9 14 1009.5 - 0.0
30/01:30pm 30.0 30.6 20.3 56 6.4 NE 17 26 9 14 1009.8 - 0.0
30/01:00pm 29.5 30.0 20.1 57 6.2 NNE 17 24 9 13 1010.5 - 0.0
30/12:30pm 30.1 30.5 19.9 54 6.7 NNE 17 24 9 13 1010.9 - 0.0
30/12:00pm 29.6 30.5 20.0 56 6.3 NNE 15 26 8 14 1011.3 1010.9 0.0
30/11:30am 30.9 31.1 18.5 47 8.0 NNE 15 24 8 13 1011.5 - 0.0
30/11:00am 30.0 30.4 19.8 54 6.7 NNE 17 26 9 14 1011.8 - 0.0
30/10:30am 29.0 29.2 20.2 59 5.8 NNE 19 22 10 12 1012.0 - 0.0
30/10:00am 28.8 29.3 20.1 59 5.7 N 17 28 9 15 1012.1 - 0.0
30/09:30am 29.0 29.4 20.7 61 5.5 N 19 26 10 14 1012.3 - 0.0
30/09:00am 28.4 28.8 20.9 64 5.0 NNE 20 28 11 15 1012.3 1011.9 0.0
30/08:30am 27.4 28.6 21.4 70 4.0 NNE 17 22 9 12 1012.2 - 0.0
30/08:00am 26.5 28.9 22.2 77 2.9 N 13 20 7 11 1012.0 - 0.0
30/07:30am 25.7 28.9 22.3 81 2.3 N 9 17 5 9 1011.8 - 0.0
30/07:00am 22.9 27.0 20.8 88 1.4 CALM 0 0 0 0 1011.5 - 0.0
30/06:30am 20.1 23.1 18.5 90 1.0 CALM 0 0 0 0 1011.0 - 0.0
30/06:00am 18.7 21.1 17.1 90 1.0 CALM 0 0 0 0 1010.7 1010.3 0.0
30/05:30am 18.9 21.5 17.4 91 0.9 CALM 0 0 0 0 1010.7 - 0.0
30/05:00am 18.9 21.5 17.4 91 0.9 CALM 0 0 0 0 1010.4 - 0.0
30/04:30am 18.9 21.4 17.3 90 1.0 CALM 0 0 0 0 1010.2 - 0.0
30/04:00am 18.8 21.3 17.3 91 0.9 CALM 0 0 0 0 1010.0 - 0.0
30/03:30am 18.5 21.0 17.2 92 0.8 CALM 0 0 0 0 1009.8 - 0.0
30/03:00am 18.6 21.0 16.9 90 1.0 CALM 0 0 0 0 1009.8 1009.4 0.0
30/02:30am 19.0 21.7 17.7 92 0.8 CALM 0 0 0 0 1009.8 - 0.0
30/02:00am 19.3 22.0 17.8 91 0.9 CALM 0 0 0 0 1010.1 - 0.0
30/01:30am 19.8 22.7 18.2 90 1.0 CALM 0 0 0 0 1010.5 - 0.0
30/01:00am 20.3 23.3 18.5 89 1.1 CALM 0 0 0 0 1011.0 - 0.0
30/12:30am 20.6 23.9 19.0 90 1.0 CALM 0 0 0 0 1011.4 - 0.0
30/12:00am 20.9 24.2 19.2 90 1.1 CALM 0 0 0 0 1011.9 1011.5 0.0
 
Date/Time
CST
Temp
°C
App
Temp
°C
Dew
Point
Rel
Hum
%
Delta-T
°C
Wind Press
QNH
hPa
Press
MSL
hPa
Rain
since 9 am
mm
Dir
 
Spd
km/h
Gust
km/h
Spd
kts
Gust
kts
29/11:30pm 20.8 23.9 18.7 88 1.3 CALM 0 0 0 0 1012.2 - 0.0
29/11:00pm 21.2 23.9 19.5 90 1.1 ENE 4 7 2 4 1012.4 - 0.0
29/10:30pm 21.5 25.0 19.5 88 1.3 CALM 0 6 0 3 1012.7 - 0.0
29/10:00pm 21.7 24.0 19.5 87 1.4 ENE 6 9 3 5 1012.6 - 0.0
29/09:30pm 21.7 25.1 19.3 86 1.5 CALM 0 0 0 0 1012.3 - 0.0
29/09:00pm 22.1 24.5 18.9 82 2.0 ESE 4 6 2 3 1012.2 1011.8 0.0
29/08:30pm 23.0 26.6 19.7 82 2.1 CALM 0 6 0 3 1011.9 - 0.0
29/08:00pm 25.0 27.4 20.1 74 3.2 E 7 9 4 5 1011.6 - 0.0
29/07:30pm 25.7 28.3 20.5 73 3.4 ENE 7 11 4 6 1011.4 - 0.0
29/07:00pm 25.9 28.2 20.6 72 3.5 ENE 9 11 5 6 1011.4 - 0.0
29/06:30pm 26.3 27.8 20.5 70 3.8 E 13 17 7 9 1011.0 - 0.0
29/06:00pm 27.1 28.4 20.1 65 4.6 ENE 13 15 7 8 1010.7 1010.3 0.0
29/05:30pm 27.9 28.7 19.8 61 5.3 E 15 19 8 10 1010.6 - 0.0
29/05:00pm 28.1 28.5 19.8 60 5.4 ENE 17 20 9 11 1010.5 - 0.0
29/04:30pm 29.1 29.1 18.9 54 6.6 E 17 20 9 11 1010.6 - 0.0
29/04:00pm 29.8 29.0 18.1 49 7.5 ENE 19 26 10 14 1010.5 - 0.0
29/03:30pm 31.1 30.1 16.5 41 9.2 ENE 17 24 9 13 1010.4 - 0.0
29/03:00pm 31.4 29.7 13.5 33 10.8 NE 15 26 8 14 1010.3 1009.9 0.0
29/02:30pm 31.3 29.2 13.6 34 10.7 NE 17 28 9 15 1010.4 - 0.0
29/02:00pm 32.1 30.1 12.7 30 11.6 NE 15 26 8 14 1010.6 - 0.0
29/01:30pm 31.7 29.4 11.8 29 11.7 NNE 15 26 8 14 1010.7 - 0.0
29/01:00pm 31.5 29.7 12.2 30 11.4 N 13 19 7 10 1011.2 - 0.0
29/12:30pm 31.4 30.6 16.1 39 9.6 N 15 26 8 14 1011.5 - 0.0
29/12:00pm 31.4 30.7 16.3 40 9.5 NNE 15 24 8 13 1011.7 1011.3 0.0
29/11:30am 30.5 30.1 17.1 44 8.5 NNE 15 22 8 12 1012.1 - 0.0
29/11:00am 30.0 29.0 16.6 44 8.4 NNE 17 24 9 13 1012.3 - 0.0
29/10:30am 29.8 29.3 15.8 42 8.7 ENE 13 22 7 12 1012.4 - 0.0
29/10:00am 29.4 28.9 16.8 46 7.9 ENE 15 22 8 12 1012.8 - 0.0
29/09:30am 28.0 28.8 19.9 61 5.3 ENE 15 20 8 11 1013.0 - 0.0
29/09:00am 28.5 29.2 19.6 58 5.8 NE 15 20 8 11 1013.0 1012.6 0.0
29/08:30am 27.5 28.5 19.5 61 5.2 NE 13 20 7 11 1012.9 - 0.0
29/08:00am 26.5 27.4 20.1 68 4.2 NE 15 19 8 10 1012.7 - 0.0
29/07:30am 25.7 28.2 20.2 71 3.6 NNE 7 11 4 6 1012.7 - 0.0
29/07:00am 22.7 26.5 20.2 86 1.6 CALM 0 0 0 0 1012.6 - 0.0
29/06:30am 19.6 22.6 18.5 93 0.7 CALM 0 0 0 0 1012.3 - 0.0
29/06:00am 18.3 20.7 17.0 92 0.8 CALM 0 0 0 0 1012.1 1011.7 0.0
29/05:30am 18.1 20.3 16.4 90 1.0 CALM 0 0 0 0 1012.0 - 0.0
29/05:00am 18.2 20.4 16.5 90 1.0 CALM 0 0 0 0 1011.6 - 0.0
29/04:30am 18.6 21.0 17.1 91 0.9 CALM 0 0 0 0 1011.4 - 0.0
29/04:00am 18.8 21.4 17.5 92 0.8 CALM 0 0 0 0 1011.2 - 0.0
29/03:30am 18.9 21.5 17.4 91 0.9 CALM 0 0 0 0 1011.2 - 0.0
29/03:00am 18.9 21.4 17.3 90 1.0 CALM 0 0 0 0 1011.2 - 0.0
29/02:30am 19.2 22.0 17.9 92 0.8 CALM 0 0 0 0 1011.3 - 0.0
29/02:00am 19.7 22.8 18.6 93 0.7 CALM 0 0 0 0 1011.4 - 0.0
29/01:30am 19.7 22.5 17.9 89 1.1 CALM 0 0 0 0 1011.5 - 0.0
29/01:00am 19.7 22.6 18.1 90 1.0 CALM 0 0 0 0 1011.5 - 0.0
29/12:30am 20.1 23.1 18.5 90 1.0 CALM 0 0 0 0 1011.5 - 0.0
29/12:00am 20.5 23.7 18.9 90 1.0 CALM 0 0 0 0 1012.0 1011.6 0.0
 
Date/Time
CST
Temp
°C
App
Temp
°C
Dew
Point
Rel
Hum
%
Delta-T
°C
Wind Press
QNH
hPa
Press
MSL
hPa
Rain
since 9 am
mm
Dir
 
Spd
km/h
Gust
km/h
Spd
kts
Gust
kts
28/11:30pm 21.0 24.4 19.3 90 1.1 CALM 0 2 0 1 1012.5 - 0.0
28/11:00pm 21.5 23.7 19.1 86 1.5 ESE 6 6 3 3 1012.5 - 0.0
28/10:30pm 22.2 24.5 19.4 84 1.8 ESE 6 7 3 4 1012.4 - 0.0
28/10:00pm 23.6 25.8 19.6 78 2.6 E 7 11 4 6 1012.2 - 0.0
28/09:30pm 23.4 25.6 19.5 79 2.5 E 7 11 4 6 1012.0 - 0.0

Other Formats:

Comma delimited format used in spreadsheet applications
http://www.bom.gov.au/fwo/IDD60801/IDD60801.94150.axf

JavaScript Object Notation format (JSON) in row-major order
http://www.bom.gov.au/fwo/IDD60801/IDD60801.94150.json